This is the latest recevied weather packets stored in our database for station/object EA5EN. If no packets are shown the sender has not sent any weather packets the latest 10 day(s).
| Time | Temp. | Humidity | Pressure | Rain* | Wind** | Luminosity | Snow |
|---|---|---|---|---|---|---|---|
| 1777824017 | 25.56° C | 58% | 1010.8 hPa | 0 mm | - | - | - |
| 1777819268 | 26.11° C | 51% | 1011.4 hPa | 0 mm | - | - | - |
| 1777818677 | 26.67° C | 50% | 1011.5 hPa | 0 mm | - | - | - |
| 1777815067 | 26.11° C | 55% | 1012.6 hPa | 0 mm | - | - | - |
| 1777813851 | 25° C | 56% | 1013 hPa | 0 mm | - | - | - |
| 1777807218 | 23.89° C | 61% | 1014.8 hPa | 0 mm | - | - | - |
| 1777806667 | 22.78° C | 64% | 1015 hPa | 0 mm | - | - | - |
| 1777806056 | 22.78° C | 65% | 1015.1 hPa | 0 mm | - | - | - |
| 1777804232 | 21.67° C | 67% | 1015.2 hPa | 0 mm | - | - | - |
| 1777801876 | 20° C | 74% | 1015.9 hPa | 0 mm | - | - | - |
| 1777799419 | 18.89° C | 77% | 1015.9 hPa | 0 mm | - | - | - |
| 1777797651 | 18.89° C | 80% | 1015.9 hPa | 0 mm | - | - | - |
| 1777795238 | 17.78° C | 86% | 1015.8 hPa | 0 mm | - | - | - |
| 1777791627 | 17.78° C | 87% | 1015.6 hPa | 0 mm | - | - | - |
| 1777791018 | 17.22° C | 89% | 1015.6 hPa | 0 mm | - | - | - |
| 1777789857 | 17.22° C | 90% | 1015.5 hPa | 0 mm | - | - | - |
| 1777788641 | 17.22° C | 90% | 1015.7 hPa | 0 mm | - | - | - |
| 1777784439 | 17.22° C | 91% | 1014.7 hPa | 0 mm | - | - | - |
| 1777783828 | 16.67° C | 91% | 1014.6 hPa | 0 mm | - | - | - |
| 1777782667 | 17.22° C | 91% | 1014.6 hPa | 0 mm | - | - | - |
| 1777771832 | 17.22° C | 90% | 1015.4 hPa | 0 mm | - | - | - |
| 1777770618 | 17.22° C | 90% | 1015.6 hPa | 0 mm | - | - | - |
| 1777768852 | 17.78° C | 89% | 1015.8 hPa | 0 mm | - | - | - |
| 1777765254 | 17.78° C | 88% | 1017.1 hPa | 0 mm | - | - | - |
| 1777764039 | 17.78° C | 89% | 1017.2 hPa | 0 mm | - | - | - |
* Rain latest hour (hover to see other rain measurements)
** Current wind speed in m/s (hover to see current wind gust speed)